Monterey, CA

6:04 AM PDT on October 01, 2016 (GMT -0700)
Monterey Peninsula

Weather History for KMRY - November, 2010

Change the Weather History Date:

Friday, November 19, 2010

  Actual Average Record
Temperature  
Mean Temperature 53 °F 54 °F  
Max Temperature 57 °F 63 °F 79 °F (2005)
Min Temperature 48 °F 45 °F 37 °F (2000)
Degree Days  
Heating Degree Days 12    
Month to date heating degree days 149  
Since 1 July heating degree days 811  
Cooling Degree Days 0    
Month to date cooling degree days 3  
Year to date cooling degree days 34  
Growing Degree Days 2 (Base 50)    
Moisture  
Dew Point 45 °F    
Average Humidity 75    
Maximum Humidity 83    
Minimum Humidity 66    
Precipitation  
Precipitation 0.31 in - 0.52 in (1950)
Month to date precipitation 0.69  
Year to date precipitation 17.95  
Since 1 July precipitation 1.62  
Sea Level Pressure  
Sea Level Pressure 29.94 in    
Wind  
Wind Speed 3 mph (SW)    
Max Wind Speed 15 mph    
Max Gust Speed 20 mph    
Visibility 9 miles    
Events Rain    
T = Trace of Precipitation, MM = Missing Value Source: NWS Daily Summary

Daily Weather History Graph

Daily Weather History Graph

Search for Another Location

Airport or City:

Trip Planner

Search our weather history database for the weather conditions in past years. The results will help you decide how hot, cold, wet, or windy it might be!

Date:

Astronomy

Nov. 19, 2010 Rise Set
Actual Time 6:49 AM PST 4:56 PM PST
Civil Twilight 6:21 AM PST 5:23 PM PST
Nautical Twilight 5:50 AM PST 5:55 PM PST
Astronomical Twilight 5:19 AM PST 6:25 PM PST
Moon 3:29 PM PST (11/19) 4:53 AM PST (11/19)
Length of Visible Light 11h 02m
Length of Day
10h 06m
Waxing Gibbous, 96% of the Moon is Illuminated
Nov 19
Waxing Gibbous
Nov 21
Full
Nov 28
Last Quarter
Dec 5
New
Dec 13
First Quarter

Hourly Weather History & Observations

Time (PST) Temp. Dew Point Humidity Pressure Visibility Wind Dir Wind Speed Gust Speed Precip Events Conditions
12:54 AM 51.1 °F 44.1 °F 77% 30.05 in 10.0 mi Calm Calm - N/A   Overcast
1:54 AM 51.1 °F 44.1 °F 77% 30.04 in 10.0 mi Calm Calm - N/A   Overcast
2:54 AM 51.1 °F 44.1 °F 77% 30.03 in 10.0 mi SSE 3.5 mph - N/A   Overcast
3:54 AM 51.1 °F 45.0 °F 80% 30.02 in 10.0 mi SSE 3.5 mph - N/A   Overcast
4:54 AM 50.0 °F 45.0 °F 83% 30.02 in 8.0 mi SE 3.5 mph - N/A   Overcast
5:54 AM 51.1 °F 45.0 °F 80% 30.01 in 10.0 mi ESE 11.5 mph - 0.00 in   Overcast
6:01 AM 51.8 °F 44.6 °F 76% 29.97 in 10.0 mi ESE 10.4 mph - N/A   Overcast
6:54 AM 51.1 °F 45.0 °F 80% 30.01 in 10.0 mi South 3.5 mph - N/A   Overcast
7:54 AM 52.0 °F 44.1 °F 74% 30.03 in 10.0 mi North 3.5 mph - N/A   Overcast
8:54 AM 53.1 °F 44.1 °F 71% 30.03 in 10.0 mi SE 6.9 mph - N/A   Mostly Cloudy
9:54 AM 55.0 °F 45.0 °F 69% 30.03 in 10.0 mi WSW 4.6 mph - N/A   Overcast
10:54 AM 55.9 °F 45.0 °F 67% 30.02 in 10.0 mi WNW 3.5 mph - N/A   Overcast
11:02 AM 57.2 °F 44.6 °F 63% 29.98 in 10.0 mi WSW 3.5 mph - N/A   Overcast
11:49 AM 55.4 °F 44.6 °F 67% 29.96 in 10.0 mi SW 6.9 mph - N/A   Overcast
11:54 AM 55.9 °F 44.1 °F 64% 29.99 in 10.0 mi SW 5.8 mph - N/A   Overcast
12:16 PM 55.4 °F 44.6 °F 67% 29.94 in 10.0 mi SW 4.6 mph - N/A   Overcast
12:54 PM 55.9 °F 44.1 °F 64% 29.97 in 10.0 mi WSW 6.9 mph - N/A   Overcast
1:54 PM 55.9 °F 44.1 °F 64% 29.94 in 10.0 mi WSW 6.9 mph - N/A   Overcast
2:14 PM 55.4 °F 44.6 °F 67% 29.90 in 10.0 mi Calm Calm - N/A   Overcast
2:43 PM 55.4 °F 44.6 °F 67% 29.89 in 10.0 mi Calm Calm - N/A   Overcast
2:54 PM 55.0 °F 45.0 °F 69% 29.93 in 10.0 mi WSW 4.6 mph - N/A   Overcast
3:01 PM 55.4 °F 44.6 °F 67% 29.89 in 10.0 mi WSW 4.6 mph - N/A   Overcast
3:35 PM 53.6 °F 44.6 °F 72% 29.88 in 10.0 mi SW 3.5 mph - N/A   Overcast
3:54 PM 54.0 °F 45.0 °F 72% 29.91 in 10.0 mi Calm Calm - N/A   Overcast
4:54 PM 55.0 °F 45.0 °F 69% 29.90 in 10.0 mi Calm Calm - N/A   Overcast
5:54 PM 54.0 °F 45.0 °F 72% 29.90 in 10.0 mi Calm Calm - N/A   Overcast
6:01 PM 53.6 °F 44.6 °F 72% 29.87 in 10.0 mi Calm Calm - N/A   Overcast
6:26 PM 53.6 °F 44.6 °F 72% 29.87 in 10.0 mi Calm Calm - N/A   Overcast
6:54 PM 53.1 °F 45.0 °F 74% 29.90 in 10.0 mi Calm Calm - N/A   Overcast
7:54 PM 51.1 °F 44.1 °F 77% 29.90 in 10.0 mi Calm Calm - N/A   Scattered Clouds
8:54 PM 52.0 °F 45.0 °F 77% 29.89 in 10.0 mi East 3.5 mph - N/A   Overcast
9:54 PM 51.1 °F 46.0 °F 83% 29.88 in 6.0 mi Calm Calm - 0.03 in Rain Rain
10:05 PM 51.8 °F 46.4 °F 82% 29.85 in 9.0 mi Calm Calm - 0.01 in Rain Light Rain
10:20 PM 51.8 °F 46.4 °F 82% 29.85 in 10.0 mi Calm Calm - 0.01 in Rain Light Rain
10:54 PM 52.0 °F 46.9 °F 83% 29.88 in 4.0 mi Calm Calm - 0.01 in Rain Light Rain
11:37 PM 48.2 °F 44.6 °F 87% 29.87 in 2.0 mi WSW 13.8 mph 19.6 mph 0.13 in Rain Light Rain
11:40 PM 48.2 °F 44.6 °F 87% 29.86 in 1.8 mi West 9.2 mph 19.6 mph 0.18 in Rain Light Rain
11:51 PM 48.2 °F 46.4 °F 93% 29.87 in 3.0 mi West 6.9 mph - 0.25 in Rain Light Rain
11:54 PM 48.9 °F 46.0 °F 90% 29.90 in 3.0 mi West 6.9 mph - 0.26 in   Overcast